Time,TemperatureF,DewpointF,PressureIn,WindDirection,WindDirectionDegrees,WindSpeedMPH,WindSpeedGustMPH,Humidity,HourlyPrecipIn,Conditions,Clouds,dailyrainin,SoftwareType,DateUTC
2013-11-23 00:01:00,21.4,17.0,30.50,WNW,286,0.0,1.8,83,0.00,,---,0.00,VWS V14.01,2013-11-23 06:01:00,
2013-11-23 00:06:00,21.3,16.9,30.50,WNW,292,1.8,3.6,83,0.00,,---,0.00,VWS V14.01,2013-11-23 06:06:00,
2013-11-23 00:11:00,21.3,16.9,30.50,WNW,302,1.8,3.6,83,0.00,,---,0.00,VWS V14.01,2013-11-23 06:11:00,
2013-11-23 00:16:00,21.2,16.8,30.50,West,277,1.8,1.8,83,0.00,,---,0.00,VWS V14.01,2013-11-23 06:16:00,
2013-11-23 00:21:00,21.2,16.5,30.50,WNW,293,1.8,3.6,82,0.00,,---,0.00,VWS V14.01,2013-11-23 06:21:00,
2013-11-23 00:26:00,21.2,16.5,30.50,West,280,1.8,1.8,82,0.00,,---,0.00,VWS V14.01,2013-11-23 06:26:00,
2013-11-23 00:31:00,21.2,16.3,30.50,West,271,0.0,5.4,81,0.00,,---,0.00,VWS V14.01,2013-11-23 06:31:00,
2013-11-23 00:36:00,21.3,16.1,30.50,NW,306,1.8,5.4,80,0.00,,---,0.00,VWS V14.01,2013-11-23 06:36:00,
2013-11-23 00:41:00,21.3,15.8,30.50,WNW,298,3.6,5.4,79,0.00,,---,0.00,VWS V14.01,2013-11-23 06:41:00,
2013-11-23 00:46:00,21.3,15.6,30.50,West,264,1.8,5.4,78,0.00,,---,0.00,VWS V14.01,2013-11-23 06:46:00,
2013-11-23 00:51:00,21.3,15.3,30.50,NW,314,5.4,5.4,77,0.00,,---,0.00,VWS V14.01,2013-11-23 06:51:00,
2013-11-23 00:56:00,21.4,15.1,30.50,WNW,294,1.8,5.4,76,0.00,,---,0.00,VWS V14.01,2013-11-23 06:56:00,
2013-11-23 01:01:00,21.4,15.1,30.50,WNW,297,3.6,3.6,76,0.00,,---,0.00,VWS V14.01,2013-11-23 07:01:00,
2013-11-23 01:06:00,21.3,15.0,30.50,WNW,291,1.8,3.6,76,0.00,,---,0.00,VWS V14.01,2013-11-23 07:06:00,
2013-11-23 01:11:00,21.3,15.0,30.50,West,271,1.8,3.6,76,0.00,,---,0.00,VWS V14.01,2013-11-23 07:11:00,
2013-11-23 01:16:00,21.2,14.9,30.50,WNW,286,3.6,5.4,76,0.00,,---,0.00,VWS V14.01,2013-11-23 07:16:00,
2013-11-23 01:21:00,21.1,15.1,30.50,NW,304,3.6,3.6,77,0.00,,---,0.00,VWS V14.01,2013-11-23 07:21:00,
2013-11-23 01:26:00,21.0,15.0,30.50,WNW,299,3.6,3.6,77,0.00,,---,0.00,VWS V14.01,2013-11-23 07:26:00,
2013-11-23 01:31:00,20.9,14.9,30.50,WNW,291,1.8,5.4,77,0.00,,---,0.00,VWS V14.01,2013-11-23 07:31:00,
2013-11-23 01:36:00,20.9,14.9,30.50,WNW,285,1.8,3.6,77,0.00,,---,0.00,VWS V14.01,2013-11-23 07:36:00,
2013-11-23 01:41:00,20.9,14.9,30.51,WNW,293,1.8,1.8,77,0.00,,---,0.00,VWS V14.01,2013-11-23 07:41:00,
2013-11-23 01:46:00,20.8,14.8,30.51,NW,308,1.8,3.6,77,0.00,,---,0.00,VWS V14.01,2013-11-23 07:46:00,
2013-11-23 01:51:00,20.8,14.8,30.51,WSW,257,0.0,3.6,77,0.00,,---,0.00,VWS V14.01,2013-11-23 07:51:00,
2013-11-23 01:56:00,20.7,14.7,30.51,West,269,3.6,5.4,77,0.00,,---,0.00,VWS V14.01,2013-11-23 07:56:00,
2013-11-23 02:01:00,20.7,14.7,30.51,WNW,295,1.8,3.6,77,0.00,,---,0.00,VWS V14.01,2013-11-23 08:01:00,
2013-11-23 02:06:00,20.6,14.6,30.51,West,278,1.8,1.8,77,0.00,,---,0.00,VWS V14.01,2013-11-23 08:06:00,
2013-11-23 02:11:00,20.5,14.5,30.52,WNW,296,0.0,1.8,77,0.00,,---,0.00,VWS V14.01,2013-11-23 08:11:00,
2013-11-23 02:16:00,20.5,14.5,30.52,West,269,1.8,3.6,77,0.00,,---,0.00,VWS V14.01,2013-11-23 08:16:00,
2013-11-23 02:21:00,20.4,14.4,30.51,WNW,300,3.6,5.4,77,0.00,,---,0.00,VWS V14.01,2013-11-23 08:21:00,
2013-11-23 02:26:00,20.4,14.4,30.51,West,269,1.8,1.8,77,0.00,,---,0.00,VWS V14.01,2013-11-23 08:26:00,
2013-11-23 02:31:00,20.4,14.4,30.51,NW,307,3.6,3.6,77,0.00,,---,0.00,VWS V14.01,2013-11-23 08:31:00,
2013-11-23 02:36:00,20.4,14.4,30.51,WNW,291,1.8,5.4,77,0.00,,---,0.00,VWS V14.01,2013-11-23 08:36:00,
2013-11-23 02:41:00,20.4,14.4,30.51,WNW,299,1.8,5.4,77,0.00,,---,0.00,VWS V14.01,2013-11-23 08:41:00,
2013-11-23 02:46:00,20.3,14.3,30.51,NW,323,7.2,7.2,77,0.00,,---,0.00,VWS V14.01,2013-11-23 08:46:00,
2013-11-23 02:51:00,20.3,14.3,30.52,WNW,290,3.6,3.6,77,0.00,,---,0.00,VWS V14.01,2013-11-23 08:51:00,
2013-11-23 02:56:00,20.5,14.2,30.52,WNW,284,0.0,5.4,76,0.00,,---,0.00,VWS V14.01,2013-11-23 08:56:00,
2013-11-23 03:01:00,20.5,14.2,30.52,NW,306,1.8,5.4,76,0.00,,---,0.00,VWS V14.01,2013-11-23 09:01:00,
2013-11-23 03:06:00,20.4,14.1,30.51,West,281,1.8,1.8,76,0.00,,---,0.00,VWS V14.01,2013-11-23 09:06:00,
2013-11-23 03:11:00,20.4,14.4,30.51,NW,308,1.8,3.6,77,0.00,,---,0.00,VWS V14.01,2013-11-23 09:11:00,
2013-11-23 03:16:00,20.3,14.3,30.51,WNW,286,1.8,3.6,77,0.00,,---,0.00,VWS V14.01,2013-11-23 09:16:00,
2013-11-23 03:21:00,20.2,14.5,30.51,West,277,3.6,3.6,78,0.00,,---,0.00,VWS V14.01,2013-11-23 09:21:00,
2013-11-23 03:26:00,20.1,14.4,30.51,WNW,294,3.6,3.6,78,0.00,,---,0.00,VWS V14.01,2013-11-23 09:26:00,
2013-11-23 03:31:00,20.1,14.4,30.51,WNW,290,0.0,1.8,78,0.00,,---,0.00,VWS V14.01,2013-11-23 09:31:00,
2013-11-23 03:36:00,20.1,14.4,30.51,WNW,292,1.8,3.6,78,0.00,,---,0.00,VWS V14.01,2013-11-23 09:36:00,
2013-11-23 03:41:00,20.0,14.3,30.51,NW,314,1.8,1.8,78,0.00,,---,0.00,VWS V14.01,2013-11-23 09:41:00,
2013-11-23 03:46:00,20.0,14.3,30.52,WNW,294,1.8,9.0,78,0.00,,---,0.00,VWS V14.01,2013-11-23 09:46:00,
2013-11-23 03:51:00,20.1,14.4,30.52,WNW,294,3.6,5.4,78,0.00,,---,0.00,VWS V14.01,2013-11-23 09:51:00,
2013-11-23 03:56:00,20.1,14.4,30.52,WNW,293,1.8,3.6,78,0.00,,---,0.00,VWS V14.01,2013-11-23 09:56:00,
2013-11-23 04:01:00,20.2,14.5,30.52,NW,322,5.4,5.4,78,0.00,,---,0.00,VWS V14.01,2013-11-23 10:01:00,
2013-11-23 04:06:00,20.3,14.3,30.52,WNW,294,1.8,3.6,77,0.00,,---,0.00,VWS V14.01,2013-11-23 10:06:00,
2013-11-23 04:11:00,20.3,14.3,30.52,WNW,302,3.6,9.0,77,0.00,,---,0.00,VWS V14.01,2013-11-23 10:11:00,
2013-11-23 04:16:00,20.3,14.3,30.52,WNW,302,1.8,5.4,77,0.00,,---,0.00,VWS V14.01,2013-11-23 10:16:00,
2013-11-23 04:21:00,20.3,14.3,30.53,NE,46,5.4,5.4,77,0.00,,---,0.00,VWS V14.01,2013-11-23 10:21:00,
2013-11-23 04:26:00,20.3,14.6,30.53,NW,311,1.8,3.6,78,0.00,,---,0.00,VWS V14.01,2013-11-23 10:26:00,
2013-11-23 04:31:00,20.3,14.6,30.53,West,280,5.4,10.8,78,0.00,,---,0.00,VWS V14.01,2013-11-23 10:31:00,
2013-11-23 04:36:00,20.3,14.6,30.53,WNW,293,3.6,5.4,78,0.00,,---,0.00,VWS V14.01,2013-11-23 10:36:00,
2013-11-23 04:41:00,20.3,14.6,30.53,WNW,302,5.4,5.4,78,0.00,,---,0.00,VWS V14.01,2013-11-23 10:41:00,
2013-11-23 04:46:00,20.2,14.5,30.53,WNW,287,1.8,5.4,78,0.00,,---,0.00,VWS V14.01,2013-11-23 10:46:00,
2013-11-23 04:51:00,20.2,14.5,30.53,WNW,302,5.4,7.2,78,0.00,,---,0.00,VWS V14.01,2013-11-23 10:51:00,
2013-11-23 04:56:00,20.2,14.5,30.54,WNW,300,3.6,5.4,78,0.00,,---,0.00,VWS V14.01,2013-11-23 10:56:00,
2013-11-23 05:01:00,20.2,14.5,30.54,NW,309,5.4,5.4,78,0.00,,---,0.00,VWS V14.01,2013-11-23 11:01:00,
2013-11-23 05:06:00,20.2,14.5,30.54,NNW,328,3.6,5.4,78,0.00,,---,0.00,VWS V14.01,2013-11-23 11:06:00,
2013-11-23 05:11:00,20.3,14.9,30.54,NW,312,3.6,3.6,79,0.00,,---,0.00,VWS V14.01,2013-11-23 11:11:00,
2013-11-23 05:16:00,20.3,14.9,30.54,NW,326,5.4,5.4,79,0.00,,---,0.00,VWS V14.01,2013-11-23 11:16:00,
2013-11-23 05:21:00,20.3,14.9,30.54,NW,309,5.4,5.4,79,0.00,,---,0.00,VWS V14.01,2013-11-23 11:21:00,
2013-11-23 05:26:00,20.3,14.6,30.54,NW,304,3.6,3.6,78,0.00,,---,0.00,VWS V14.01,2013-11-23 11:26:00,
2013-11-23 05:31:00,20.3,14.6,30.54,NW,321,3.6,7.2,78,0.00,,---,0.00,VWS V14.01,2013-11-23 11:31:00,
2013-11-23 05:36:00,20.3,14.6,30.54,WNW,301,3.6,7.2,78,0.00,,---,0.00,VWS V14.01,2013-11-23 11:36:00,
2013-11-23 05:41:00,20.3,14.9,30.54,WNW,298,5.4,10.8,79,0.00,,---,0.00,VWS V14.01,2013-11-23 11:41:00,
2013-11-23 05:46:00,20.3,14.9,30.54,NW,314,3.6,9.0,79,0.00,,---,0.00,VWS V14.01,2013-11-23 11:46:00,
2013-11-23 05:51:00,20.2,14.5,30.54,WNW,287,3.6,7.2,78,0.00,,---,0.00,VWS V14.01,2013-11-23 11:51:00,
2013-11-23 05:56:00,20.2,14.5,30.55,NW,317,5.4,5.4,78,0.00,,---,0.00,VWS V14.01,2013-11-23 11:56:00,
2013-11-23 06:01:00,20.2,14.5,30.55,NW,318,3.6,7.2,78,0.00,,---,0.00,VWS V14.01,2013-11-23 12:01:00,
2013-11-23 06:06:00,20.3,14.3,30.55,WNW,291,5.4,9.0,77,0.00,,---,0.00,VWS V14.01,2013-11-23 12:06:00,
2013-11-23 06:11:00,20.2,14.2,30.55,WNW,291,3.6,5.4,77,0.00,,---,0.00,VWS V14.01,2013-11-23 12:11:00,
2013-11-23 06:16:00,20.2,14.2,30.55,NW,316,9.0,12.6,77,0.00,,---,0.00,VWS V14.01,2013-11-23 12:16:00,
2013-11-23 06:21:00,20.1,14.1,30.56,WNW,300,7.2,10.8,77,0.00,,---,0.00,VWS V14.01,2013-11-23 12:21:00,
2013-11-23 06:26:00,20.1,14.1,30.56,WNW,293,7.2,7.2,77,0.00,,---,0.00,VWS V14.01,2013-11-23 12:26:00,
2013-11-23 06:31:00,20.0,14.0,30.56,NW,317,7.2,9.0,77,0.00,,---,0.00,VWS V14.01,2013-11-23 12:31:00,
2013-11-23 06:36:00,19.9,13.9,30.56,WNW,300,7.2,7.2,77,0.00,,---,0.00,VWS V14.01,2013-11-23 12:36:00,
2013-11-23 06:41:00,19.7,13.7,30.56,NW,310,7.2,10.8,77,0.00,,---,0.00,VWS V14.01,2013-11-23 12:41:00,
2013-11-23 06:46:00,19.7,13.7,30.56,NNW,330,5.4,7.2,77,0.00,,---,0.00,VWS V14.01,2013-11-23 12:46:00,
2013-11-23 06:51:00,19.6,13.6,30.56,NW,321,3.6,7.2,77,0.00,,---,0.00,VWS V14.01,2013-11-23 12:51:00,
2013-11-23 06:56:00,19.5,13.3,30.57,WNW,299,7.2,9.0,76,0.00,,---,0.00,VWS V14.01,2013-11-23 12:56:00,
2013-11-23 07:01:00,19.5,13.3,30.57,WNW,290,3.6,7.2,76,0.00,,---,0.00,VWS V14.01,2013-11-23 13:01:00,
2013-11-23 07:06:00,19.4,13.2,30.57,WNW,290,5.4,5.4,76,0.00,,---,0.00,VWS V14.01,2013-11-23 13:06:00,
2013-11-23 07:11:00,19.4,13.2,30.58,NW,312,5.4,7.2,76,0.00,,---,0.00,VWS V14.01,2013-11-23 13:11:00,
2013-11-23 07:16:00,19.3,13.1,30.58,NNW,327,10.8,10.8,76,0.00,,---,0.00,VWS V14.01,2013-11-23 13:16:00,
2013-11-23 07:21:00,19.2,13.0,30.58,WNW,285,3.6,10.8,76,0.00,,---,0.00,VWS V14.01,2013-11-23 13:21:00,
2013-11-23 07:26:00,19.2,13.0,30.58,NNW,342,7.2,7.2,76,0.00,,---,0.00,VWS V14.01,2013-11-23 13:26:00,
2013-11-23 07:31:00,19.2,13.0,30.58,NW,319,5.4,7.2,76,0.00,,---,0.00,VWS V14.01,2013-11-23 13:31:00,
2013-11-23 07:36:00,19.2,13.0,30.58,NW,304,7.2,7.2,76,0.00,,---,0.00,VWS V14.01,2013-11-23 13:36:00,
2013-11-23 07:41:00,19.3,12.8,30.58,NW,312,7.2,10.8,75,0.00,,---,0.00,VWS V14.01,2013-11-23 13:41:00,
2013-11-23 07:46:00,19.4,12.9,30.59,NW,321,7.2,7.2,75,0.00,,---,0.00,VWS V14.01,2013-11-23 13:46:00,
2013-11-23 07:51:00,19.4,12.9,30.59,WNW,290,7.2,9.0,75,0.00,,---,0.00,VWS V14.01,2013-11-23 13:51:00,
2013-11-23 07:56:00,19.5,13.0,30.59,WNW,290,5.4,9.0,75,0.00,,---,0.00,VWS V14.01,2013-11-23 13:56:00,
2013-11-23 08:01:00,19.6,13.1,30.60,North,1,5.4,5.4,75,0.00,,---,0.00,VWS V14.01,2013-11-23 14:01:00,
2013-11-23 08:06:00,19.8,13.0,30.60,NW,307,7.2,9.0,74,0.00,,---,0.00,VWS V14.01,2013-11-23 14:06:00,
2013-11-23 08:11:00,19.9,13.1,30.61,NW,308,5.4,10.8,74,0.00,,---,0.00,VWS V14.01,2013-11-23 14:11:00,
2013-11-23 08:16:00,19.9,12.8,30.61,NNE,25,7.2,7.2,73,0.00,,---,0.00,VWS V14.01,2013-11-23 14:16:00,
2013-11-23 08:21:00,20.1,13.0,30.62,WNW,290,7.2,9.0,73,0.00,,---,0.00,VWS V14.01,2013-11-23 14:21:00,
2013-11-23 08:26:00,19.9,12.8,30.62,NW,310,7.2,7.2,73,0.00,,---,0.00,VWS V14.01,2013-11-23 14:26:00,
2013-11-23 08:31:00,20.1,13.0,30.62,NW,319,7.2,7.2,73,0.00,,---,0.00,VWS V14.01,2013-11-23 14:31:00,
2013-11-23 08:36:00,20.2,13.1,30.62,NW,307,9.0,9.0,73,0.00,,---,0.00,VWS V14.01,2013-11-23 14:36:00,
2013-11-23 08:41:00,20.1,13.0,30.62,NW,311,7.2,7.2,73,0.00,,---,0.00,VWS V14.01,2013-11-23 14:41:00,
2013-11-23 08:46:00,20.2,13.1,30.63,NW,318,10.8,10.8,73,0.00,,---,0.00,VWS V14.01,2013-11-23 14:46:00,
2013-11-23 08:51:00,20.3,12.9,30.63,NW,311,3.6,3.6,73,0.00,,---,0.00,VWS V14.01,2013-11-23 14:51:00,
2013-11-23 08:56:00,20.4,13.0,30.63,NW,321,7.2,7.2,73,0.00,,---,0.00,VWS V14.01,2013-11-23 14:56:00,
2013-11-23 09:01:00,20.7,13.3,30.63,North,351,3.6,5.4,73,0.00,,---,0.00,VWS V14.01,2013-11-23 15:01:00,
2013-11-23 09:06:00,20.9,13.5,30.63,NW,304,9.0,10.8,73,0.00,,---,0.00,VWS V14.01,2013-11-23 15:06:00,
2013-11-23 09:11:00,21.3,14.1,30.64,NW,309,7.2,7.2,73,0.00,,---,0.00,VWS V14.01,2013-11-23 15:11:00,
2013-11-23 09:16:00,21.3,13.6,30.64,NW,313,12.6,12.6,72,0.00,,---,0.00,VWS V14.01,2013-11-23 15:16:00,
2013-11-23 09:21:00,21.1,13.4,30.64,West,281,3.6,12.6,72,0.00,,---,0.00,VWS V14.01,2013-11-23 15:21:00,
2013-11-23 09:26:00,21.0,13.6,30.65,NW,306,10.8,18.0,73,0.00,,---,0.00,VWS V14.01,2013-11-23 15:26:00,
2013-11-23 09:31:00,20.9,13.5,30.65,NE,36,3.6,10.8,73,0.00,,---,0.00,VWS V14.01,2013-11-23 15:31:00,
2013-11-23 09:36:00,20.7,13.3,30.65,NW,323,5.4,9.0,73,0.00,,---,0.00,VWS V14.01,2013-11-23 15:36:00,
2013-11-23 09:41:00,20.6,12.9,30.65,NNW,333,5.4,7.2,72,0.00,,---,0.00,VWS V14.01,2013-11-23 15:41:00,
2013-11-23 09:46:00,20.6,13.2,30.65,WNW,297,3.6,7.2,73,0.00,,---,0.00,VWS V14.01,2013-11-23 15:46:00,
2013-11-23 09:51:00,20.7,13.0,30.65,NW,321,3.6,9.0,72,0.00,,---,0.00,VWS V14.01,2013-11-23 15:51:00,
2013-11-23 09:56:00,20.8,12.2,30.66,NNW,334,1.8,5.4,69,0.00,,---,0.00,VWS V14.01,2013-11-23 15:56:00,
2013-11-23 10:01:00,20.7,11.2,30.66,NW,314,10.8,10.8,66,0.00,,---,0.00,VWS V14.01,2013-11-23 16:01:00,
2013-11-23 10:06:00,20.8,11.3,30.66,NW,315,7.2,10.8,66,0.00,,---,0.00,VWS V14.01,2013-11-23 16:06:00,
2013-11-23 10:11:00,20.8,10.6,30.67,WNW,294,1.8,3.6,64,0.00,,---,0.00,VWS V14.01,2013-11-23 16:11:00,
2013-11-23 10:15:00,20.9,10.7,30.67,WNW,302,7.2,9.0,64,0.00,,---,0.00,VWS V14.01,2013-11-23 16:15:00,
2013-11-23 10:20:00,21.1,10.9,30.67,NW,322,5.4,5.4,64,0.00,,---,0.00,VWS V14.01,2013-11-23 16:20:00,
2013-11-23 10:25:00,21.2,11.0,30.67,NNW,330,5.4,5.4,64,0.00,,---,0.00,VWS V14.01,2013-11-23 16:25:00,
2013-11-23 10:30:00,21.2,11.6,30.67,North,8,7.2,7.2,66,0.00,,---,0.00,VWS V14.01,2013-11-23 16:30:00,
2013-11-23 10:35:00,21.1,10.9,30.67,NW,306,14.4,14.4,64,0.00,,---,0.00,VWS V14.01,2013-11-23 16:35:00,
2013-11-23 10:40:00,21.0,10.8,30.67,NW,317,10.8,10.8,64,0.00,,---,0.00,VWS V14.01,2013-11-23 16:40:00,
2013-11-23 10:45:00,21.1,10.6,30.67,NNW,338,7.2,7.2,63,0.00,,---,0.00,VWS V14.01,2013-11-23 16:45:00,
2013-11-23 10:50:00,21.3,10.8,30.67,NW,315,3.6,7.2,63,0.00,,---,0.00,VWS V14.01,2013-11-23 16:50:00,
2013-11-23 10:55:00,20.9,10.1,30.67,North,8,5.4,10.8,62,0.00,,---,0.00,VWS V14.01,2013-11-23 16:55:00,
2013-11-23 11:00:00,21.0,9.5,30.67,NW,316,1.8,1.8,60,0.00,,---,0.00,VWS V14.01,2013-11-23 17:00:00,
2013-11-23 11:05:00,20.9,9.4,30.67,NW,316,5.4,5.4,60,0.00,,---,0.00,VWS V14.01,2013-11-23 17:05:00,
2013-11-23 11:10:00,20.8,9.3,30.67,North,8,3.6,3.6,60,0.00,,---,0.00,VWS V14.01,2013-11-23 17:10:00,
2013-11-23 11:15:00,20.8,9.3,30.67,North,11,3.6,3.6,60,0.00,,---,0.00,VWS V14.01,2013-11-23 17:15:00,
2013-11-23 11:20:00,21.3,8.7,30.67,NNE,20,5.4,5.4,58,0.00,,---,0.00,VWS V14.01,2013-11-23 17:20:00,
2013-11-23 11:25:00,21.1,8.5,30.67,North,9,5.4,5.4,58,0.00,,---,0.00,VWS V14.01,2013-11-23 17:25:00,
2013-11-23 11:30:00,21.4,8.8,30.67,NNE,12,5.4,5.4,58,0.00,,---,0.00,VWS V14.01,2013-11-23 17:30:00,
2013-11-23 11:35:00,21.9,8.5,30.67,NW,316,10.8,10.8,56,0.00,,---,0.00,VWS V14.01,2013-11-23 17:35:00,
2013-11-23 11:40:00,21.9,8.5,30.67,NW,311,7.2,7.2,56,0.00,,---,0.00,VWS V14.01,2013-11-23 17:40:00,
2013-11-23 11:45:00,22.1,8.7,30.67,NNE,18,7.2,7.2,56,0.00,,---,0.00,VWS V14.01,2013-11-23 17:45:00,
2013-11-23 11:50:00,22.2,8.4,30.67,NW,315,3.6,5.4,55,0.00,,---,0.00,VWS V14.01,2013-11-23 17:50:00,
2013-11-23 11:55:00,22.6,8.8,30.66,East,90,5.4,5.4,55,0.00,,---,0.00,VWS V14.01,2013-11-23 17:55:00,
2013-11-23 12:00:00,22.6,8.8,30.67,NNW,333,3.6,14.4,55,0.00,,---,0.00,VWS V14.01,2013-11-23 18:00:00,
2013-11-23 12:05:00,22.8,9.4,30.67,NNE,16,7.2,12.6,56,0.00,,---,0.00,VWS V14.01,2013-11-23 18:05:00,
2013-11-23 12:10:00,22.8,9.0,30.67,NW,319,9.0,12.6,55,0.00,,---,0.00,VWS V14.01,2013-11-23 18:10:00,
2013-11-23 12:15:00,22.6,7.7,30.67,WNW,294,10.8,14.4,52,0.00,,---,0.00,VWS V14.01,2013-11-23 18:15:00,
2013-11-23 12:20:00,23.0,9.2,30.67,NW,315,3.6,16.2,55,0.00,,---,0.00,VWS V14.01,2013-11-23 18:20:00,
2013-11-23 12:25:00,23.2,8.6,30.66,NW,326,10.8,18.0,53,0.00,,---,0.00,VWS V14.01,2013-11-23 18:25:00,
2013-11-23 12:30:00,22.9,7.6,30.67,NNW,330,7.2,18.0,51,0.00,,---,0.00,VWS V14.01,2013-11-23 18:30:00,
2013-11-23 12:35:00,23.0,8.0,30.66,ENE,58,10.8,10.8,52,0.00,,---,0.00,VWS V14.01,2013-11-23 18:35:00,
2013-11-23 12:40:00,23.2,8.6,30.66,NE,34,9.0,12.6,53,0.00,,---,0.00,VWS V14.01,2013-11-23 18:40:00,
2013-11-23 12:45:00,23.3,8.3,30.66,NE,35,3.6,18.0,52,0.00,,---,0.00,VWS V14.01,2013-11-23 18:45:00,
2013-11-23 12:50:00,23.4,8.0,30.67,NNW,345,3.6,16.2,51,0.00,,---,0.00,VWS V14.01,2013-11-23 18:50:00,
2013-11-23 12:55:00,23.7,8.7,30.67,NNW,338,7.2,14.4,52,0.00,,---,0.00,VWS V14.01,2013-11-23 18:55:00,
2013-11-23 13:00:00,23.7,7.9,30.67,NW,321,7.2,12.6,50,0.00,,---,0.00,VWS V14.01,2013-11-23 19:00:00,
2013-11-23 13:05:00,23.7,7.1,30.66,NNW,328,5.4,10.8,48,0.00,,---,0.00,VWS V14.01,2013-11-23 19:05:00,
2013-11-23 13:10:00,23.9,7.7,30.66,North,7,7.2,10.8,49,0.00,,---,0.00,VWS V14.01,2013-11-23 19:10:00,
2013-11-23 13:15:00,24.1,8.7,30.67,NW,312,7.2,10.8,51,0.00,,---,0.00,VWS V14.01,2013-11-23 19:15:00,
2013-11-23 13:20:00,24.0,8.6,30.67,NW,321,7.2,18.0,51,0.00,,---,0.00,VWS V14.01,2013-11-23 19:20:00,
2013-11-23 13:25:00,23.9,7.7,30.67,NW,318,7.2,18.0,49,0.00,,---,0.00,VWS V14.01,2013-11-23 19:25:00,
2013-11-23 13:30:00,23.6,7.0,30.67,NW,325,10.8,19.8,48,0.00,,---,0.00,VWS V14.01,2013-11-23 19:30:00,
2013-11-23 13:35:00,23.5,7.3,30.67,NW,309,9.0,18.0,49,0.00,,---,0.00,VWS V14.01,2013-11-23 19:35:00,
2013-11-23 13:40:00,23.4,7.6,30.67,NW,304,5.4,16.2,50,0.00,,---,0.00,VWS V14.01,2013-11-23 19:40:00,
2013-11-23 13:45:00,23.6,7.8,30.67,NW,310,7.2,12.6,50,0.00,,---,0.00,VWS V14.01,2013-11-23 19:45:00,
2013-11-23 13:50:00,23.7,7.5,30.67,NW,321,9.0,16.2,49,0.00,,---,0.00,VWS V14.01,2013-11-23 19:50:00,
2013-11-23 13:55:00,23.7,7.1,30.67,NW,319,9.0,12.6,48,0.00,,---,0.00,VWS V14.01,2013-11-23 19:55:00,
2013-11-23 14:00:00,23.6,6.5,30.67,NW,319,10.8,19.8,47,0.00,,---,0.00,VWS V14.01,2013-11-23 20:00:00,
2013-11-23 14:05:00,23.7,7.5,30.67,WNW,295,9.0,14.4,49,0.00,,---,0.00,VWS V14.01,2013-11-23 20:05:00,
2013-11-23 14:10:00,23.6,7.0,30.67,WNW,302,9.0,18.0,48,0.00,,---,0.00,VWS V14.01,2013-11-23 20:10:00,
2013-11-23 14:15:00,23.6,6.5,30.67,WNW,295,3.6,12.6,47,0.00,,---,0.00,VWS V14.01,2013-11-23 20:15:00,
2013-11-23 14:20:00,23.7,6.2,30.67,NE,56,7.2,12.6,46,0.00,,---,0.00,VWS V14.01,2013-11-23 20:20:00,
2013-11-23 14:25:00,23.7,7.5,30.68,WNW,291,5.4,14.4,49,0.00,,---,0.00,VWS V14.01,2013-11-23 20:25:00,
2013-11-23 14:30:00,23.8,7.6,30.68,NW,309,14.4,14.4,49,0.00,,---,0.00,VWS V14.01,2013-11-23 20:30:00,
2013-11-23 14:35:00,23.7,7.1,30.68,West,278,1.8,12.6,48,0.00,,---,0.00,VWS V14.01,2013-11-23 20:35:00,
2013-11-23 14:40:00,23.9,6.8,30.68,NW,307,3.6,9.0,47,0.00,,---,0.00,VWS V14.01,2013-11-23 20:40:00,
2013-11-23 14:45:00,23.7,7.1,30.68,NW,317,7.2,10.8,48,0.00,,---,0.00,VWS V14.01,2013-11-23 20:45:00,
2013-11-23 14:50:00,23.5,6.4,30.68,NW,321,7.2,10.8,47,0.00,,---,0.00,VWS V14.01,2013-11-23 20:50:00,
2013-11-23 14:55:00,23.4,6.8,30.68,NW,316,5.4,16.2,48,0.00,,---,0.00,VWS V14.01,2013-11-23 20:55:00,
2013-11-23 15:00:00,23.2,6.6,30.68,NNW,330,10.8,19.8,48,0.00,,---,0.00,VWS V14.01,2013-11-23 21:00:00,
2013-11-23 15:05:00,22.9,5.9,30.69,NNE,15,3.6,14.4,47,0.00,,---,0.00,VWS V14.01,2013-11-23 21:05:00,
2013-11-23 15:10:00,22.8,5.8,30.69,WNW,300,7.2,12.6,47,0.00,,---,0.00,VWS V14.01,2013-11-23 21:10:00,
2013-11-23 15:15:00,22.7,5.7,30.69,NNE,12,5.4,14.4,47,0.00,,---,0.00,VWS V14.01,2013-11-23 21:15:00,
2013-11-23 15:20:00,22.6,6.0,30.69,NW,322,9.0,14.4,48,0.00,,---,0.00,VWS V14.01,2013-11-23 21:20:00,
2013-11-23 15:25:00,22.5,5.5,30.69,NW,310,7.2,12.6,47,0.00,,---,0.00,VWS V14.01,2013-11-23 21:25:00,
2013-11-23 15:30:00,22.3,5.8,30.69,NNE,24,1.8,10.8,48,0.00,,---,0.00,VWS V14.01,2013-11-23 21:30:00,
2013-11-23 15:35:00,22.2,5.2,30.69,NW,321,5.4,10.8,47,0.00,,---,0.00,VWS V14.01,2013-11-23 21:35:00,
2013-11-23 15:40:00,21.9,4.5,30.69,NW,315,12.6,18.0,46,0.00,,---,0.00,VWS V14.01,2013-11-23 21:40:00,
2013-11-23 15:45:00,21.6,4.7,30.69,NNW,345,5.4,16.2,47,0.00,,---,0.00,VWS V14.01,2013-11-23 21:45:00,
2013-11-23 15:50:00,21.5,5.0,30.69,NW,307,7.2,12.6,48,0.00,,---,0.00,VWS V14.01,2013-11-23 21:50:00,
2013-11-23 15:55:00,21.4,5.8,30.69,West,281,5.4,9.0,50,0.00,,---,0.00,VWS V14.01,2013-11-23 21:55:00,
2013-11-23 16:00:00,21.3,5.3,30.69,NW,326,3.6,12.6,49,0.00,,---,0.00,VWS V14.01,2013-11-23 22:00:00,
2013-11-23 16:05:00,21.0,5.4,30.69,NW,309,5.4,9.0,50,0.00,,---,0.00,VWS V14.01,2013-11-23 22:05:00,
2013-11-23 16:10:00,20.8,5.6,30.69,NNW,328,5.4,7.2,51,0.00,,---,0.00,VWS V14.01,2013-11-23 22:10:00,
2013-11-23 16:15:00,20.7,6.3,30.70,NNE,19,7.2,10.8,53,0.00,,---,0.00,VWS V14.01,2013-11-23 22:15:00,
2013-11-23 16:20:00,20.5,6.5,30.70,NE,39,1.8,7.2,54,0.00,,---,0.00,VWS V14.01,2013-11-23 22:20:00,
2013-11-23 16:25:00,20.3,5.9,30.70,NW,309,7.2,16.2,53,0.00,,---,0.00,VWS V14.01,2013-11-23 22:25:00,
2013-11-23 16:30:00,20.1,6.1,30.70,NW,308,3.6,12.6,54,0.00,,---,0.00,VWS V14.01,2013-11-23 22:30:00,
2013-11-23 16:35:00,19.9,5.9,30.70,WNW,302,3.6,9.0,54,0.00,,---,0.00,VWS V14.01,2013-11-23 22:35:00,
2013-11-23 16:40:00,19.6,6.0,30.70,NNW,347,1.8,7.2,55,0.00,,---,0.00,VWS V14.01,2013-11-23 22:40:00,
2013-11-23 16:45:00,19.3,6.1,30.70,North,355,3.6,7.2,56,0.00,,---,0.00,VWS V14.01,2013-11-23 22:45:00,
2013-11-23 16:50:00,19.2,6.4,30.70,WNW,293,1.8,9.0,57,0.00,,---,0.00,VWS V14.01,2013-11-23 22:50:00,
2013-11-23 16:55:00,19.0,6.2,30.71,NNW,338,3.6,7.2,57,0.00,,---,0.00,VWS V14.01,2013-11-23 22:55:00,
2013-11-23 17:00:00,18.8,6.3,30.71,NW,326,0.0,9.0,58,0.00,,---,0.00,VWS V14.01,2013-11-23 23:00:00,
2013-11-23 17:05:00,18.6,6.5,30.71,NW,323,7.2,9.0,59,0.00,,---,0.00,VWS V14.01,2013-11-23 23:05:00,
2013-11-23 17:09:00,18.6,6.2,30.70,NW,316,5.4,9.0,58,0.00,,---,0.00,VWS V14.01,2013-11-23 23:09:00,
2013-11-23 17:14:00,18.6,6.2,30.71,NW,318,5.4,9.0,58,0.00,,---,0.00,VWS V14.01,2013-11-23 23:14:00,
2013-11-23 17:19:00,18.4,6.3,30.71,WNW,302,3.6,9.0,59,0.00,,---,0.00,VWS V14.01,2013-11-23 23:19:00,
2013-11-23 17:24:00,18.2,6.1,30.71,WNW,284,3.6,9.0,59,0.00,,---,0.00,VWS V14.01,2013-11-23 23:24:00,
2013-11-23 17:29:00,18.1,6.4,30.71,NW,321,3.6,7.2,60,0.00,,---,0.00,VWS V14.01,2013-11-23 23:29:00,
2013-11-23 17:34:00,17.9,6.2,30.71,NW,309,7.2,9.0,60,0.00,,---,0.00,VWS V14.01,2013-11-23 23:34:00,
2013-11-23 17:39:00,17.9,6.2,30.71,WNW,288,3.6,5.4,60,0.00,,---,0.00,VWS V14.01,2013-11-23 23:39:00,
2013-11-23 17:44:00,17.8,6.1,30.72,NNW,338,1.8,3.6,60,0.00,,---,0.00,VWS V14.01,2013-11-23 23:44:00,
2013-11-23 17:49:00,17.5,6.2,30.72,NW,323,3.6,3.6,60,0.00,,---,0.00,VWS V14.01,2013-11-23 23:49:00,
2013-11-23 17:54:00,17.4,6.1,30.71,NW,316,3.6,3.6,60,0.00,,---,0.00,VWS V14.01,2013-11-23 23:54:00,
2013-11-23 17:59:00,17.3,5.6,30.72,NW,321,1.8,9.0,60,0.00,,---,0.00,VWS V14.01,2013-11-23 23:59:00,
2013-11-23 18:04:00,17.3,6.0,30.72,NW,312,1.8,5.4,60,0.00,,---,0.00,VWS V14.01,2013-11-24 00:04:00,
2013-11-23 18:09:00,17.2,5.9,30.72,NW,304,5.4,9.0,60,0.00,,---,0.00,VWS V14.01,2013-11-24 00:09:00,
2013-11-23 18:14:00,17.2,5.9,30.73,NW,323,3.6,5.4,60,0.00,,---,0.00,VWS V14.01,2013-11-24 00:14:00,
2013-11-23 18:19:00,17.1,6.1,30.73,WNW,294,1.8,5.4,61,0.00,,---,0.00,VWS V14.01,2013-11-24 00:19:00,
2013-11-23 18:24:00,16.9,6.3,30.73,WNW,302,1.8,3.6,62,0.00,,---,0.00,VWS V14.01,2013-11-24 00:24:00,
2013-11-23 18:29:00,16.7,6.4,30.73,NW,311,3.6,5.4,63,0.00,,---,0.00,VWS V14.01,2013-11-24 00:29:00,
2013-11-23 18:34:00,16.5,6.5,30.74,WNW,301,3.6,5.4,64,0.00,,---,0.00,VWS V14.01,2013-11-24 00:34:00,
2013-11-23 18:39:00,16.4,6.7,30.74,NW,321,3.6,5.4,65,0.00,,---,0.00,VWS V14.01,2013-11-24 00:39:00,
2013-11-23 18:44:00,16.3,7.0,30.73,NW,311,3.6,5.4,66,0.00,,---,0.00,VWS V14.01,2013-11-24 00:44:00,
2013-11-23 18:49:00,16.2,6.9,30.74,NW,316,5.4,7.2,66,0.00,,---,0.00,VWS V14.01,2013-11-24 00:49:00,
2013-11-23 18:54:00,16.1,6.8,30.74,WNW,299,3.6,7.2,66,0.00,,---,0.00,VWS V14.01,2013-11-24 00:54:00,
2013-11-23 18:59:00,16.0,7.0,30.74,NW,308,1.8,5.4,67,0.00,,---,0.00,VWS V14.01,2013-11-24 00:59:00,
2013-11-23 19:04:00,15.8,6.8,30.74,NW,319,1.8,5.4,67,0.00,,---,0.00,VWS V14.01,2013-11-24 01:04:00,
2013-11-23 19:09:00,15.7,7.0,30.74,NW,318,1.8,7.2,68,0.00,,---,0.00,VWS V14.01,2013-11-24 01:09:00,
2013-11-23 19:14:00,15.6,6.9,30.74,NW,310,3.6,7.2,68,0.00,,---,0.00,VWS V14.01,2013-11-24 01:14:00,
2013-11-23 19:19:00,15.4,6.7,30.74,NW,326,0.0,3.6,68,0.00,,---,0.00,VWS V14.01,2013-11-24 01:19:00,
2013-11-23 19:24:00,15.3,6.6,30.74,NW,312,3.6,3.6,68,0.00,,---,0.00,VWS V14.01,2013-11-24 01:24:00,
2013-11-23 19:29:00,15.2,6.5,30.74,NW,314,1.8,3.6,68,0.00,,---,0.00,VWS V14.01,2013-11-24 01:29:00,
2013-11-23 19:34:00,15.2,6.5,30.74,NW,316,1.8,3.6,68,0.00,,---,0.00,VWS V14.01,2013-11-24 01:34:00,
2013-11-23 19:39:00,15.3,6.6,30.74,WNW,303,1.8,3.6,68,0.00,,---,0.00,VWS V14.01,2013-11-24 01:39:00,
2013-11-23 19:44:00,15.2,6.5,30.74,NW,304,5.4,5.4,68,0.00,,---,0.00,VWS V14.01,2013-11-24 01:44:00,
2013-11-23 19:49:00,15.1,6.4,30.74,NW,309,3.6,3.6,68,0.00,,---,0.00,VWS V14.01,2013-11-24 01:49:00,
2013-11-23 19:54:00,14.9,6.5,30.74,NW,309,0.0,1.8,69,0.00,,---,0.00,VWS V14.01,2013-11-24 01:54:00,
2013-11-23 19:59:00,14.7,6.3,30.74,NW,311,1.8,1.8,69,0.00,,---,0.00,VWS V14.01,2013-11-24 01:59:00,
2013-11-23 20:04:00,14.4,6.3,30.74,NNW,335,0.0,0.0,70,0.00,,---,0.00,VWS V14.01,2013-11-24 02:04:00,
2013-11-23 20:09:00,14.1,6.1,30.74,NNW,333,0.0,1.8,70,0.00,,---,0.00,VWS V14.01,2013-11-24 02:09:00,
2013-11-23 20:14:00,14.0,6.2,30.74,NNW,333,0.0,0.0,71,0.00,,---,0.00,VWS V14.01,2013-11-24 02:14:00,
2013-11-23 20:19:00,13.9,6.2,30.74,NNW,330,0.0,0.0,71,0.00,,---,0.00,VWS V14.01,2013-11-24 02:19:00,
2013-11-23 20:24:00,13.9,6.2,30.75,NW,317,1.8,1.8,71,0.00,,---,0.00,VWS V14.01,2013-11-24 02:24:00,
2013-11-23 20:29:00,13.8,6.1,30.75,NW,308,1.8,5.4,71,0.00,,---,0.00,VWS V14.01,2013-11-24 02:29:00,
2013-11-23 20:34:00,13.8,6.1,30.75,NW,314,1.8,5.4,71,0.00,,---,0.00,VWS V14.01,2013-11-24 02:34:00,
2013-11-23 20:39:00,13.8,6.1,30.75,NW,309,1.8,5.4,71,0.00,,---,0.00,VWS V14.01,2013-11-24 02:39:00,
2013-11-23 20:43:00,13.8,5.8,30.75,NW,309,3.6,5.4,70,0.00,,---,0.00,VWS V14.01,2013-11-24 02:43:00,
2013-11-23 20:48:00,13.8,5.8,30.75,WNW,293,1.8,3.6,70,0.00,,---,0.00,VWS V14.01,2013-11-24 02:48:00,
2013-11-23 20:53:00,13.8,5.8,30.76,WNW,295,1.8,3.6,70,0.00,,---,0.00,VWS V14.01,2013-11-24 02:53:00,
2013-11-23 20:58:00,13.8,5.8,30.76,WNW,297,1.8,3.6,70,0.00,,---,0.00,VWS V14.01,2013-11-24 02:58:00,
2013-11-23 21:03:00,13.7,6.0,30.75,NW,315,1.8,5.4,71,0.00,,---,0.00,VWS V14.01,2013-11-24 03:03:00,
2013-11-23 21:08:00,13.7,6.0,30.75,NW,314,1.8,3.6,71,0.00,,---,0.00,VWS V14.01,2013-11-24 03:08:00,
2013-11-23 21:13:00,13.6,5.9,30.75,NW,304,3.6,3.6,71,0.00,,---,0.00,VWS V14.01,2013-11-24 03:13:00,
2013-11-23 21:18:00,13.5,5.8,30.75,WNW,292,1.8,5.4,71,0.00,,---,0.00,VWS V14.01,2013-11-24 03:18:00,
2013-11-23 21:23:00,13.4,5.9,30.75,West,278,3.6,5.4,72,0.00,,---,0.00,VWS V14.01,2013-11-24 03:23:00,
2013-11-23 21:28:00,13.4,5.9,30.75,NW,304,3.6,5.4,72,0.00,,---,0.00,VWS V14.01,2013-11-24 03:28:00,
2013-11-23 21:33:00,13.3,5.9,30.75,WNW,302,1.8,5.4,72,0.00,,---,0.00,VWS V14.01,2013-11-24 03:33:00,
2013-11-23 21:38:00,13.2,5.8,30.76,WNW,291,1.8,5.4,72,0.00,,---,0.00,VWS V14.01,2013-11-24 03:38:00,
2013-11-23 21:43:00,13.2,6.0,30.76,WNW,294,1.8,5.4,73,0.00,,---,0.00,VWS V14.01,2013-11-24 03:43:00,
2013-11-23 21:48:00,13.1,5.9,30.76,NNW,330,1.8,3.6,73,0.00,,---,0.00,VWS V14.01,2013-11-24 03:48:00,
2013-11-23 21:53:00,13.1,5.7,30.76,WNW,299,0.0,3.6,72,0.00,,---,0.00,VWS V14.01,2013-11-24 03:53:00,
2013-11-23 21:58:00,13.0,5.6,30.75,WNW,299,0.0,1.8,72,0.00,,---,0.00,VWS V14.01,2013-11-24 03:58:00,
2013-11-23 22:03:00,12.9,5.8,30.75,WNW,299,0.0,1.8,73,0.00,,---,0.00,VWS V14.01,2013-11-24 04:03:00,
2013-11-23 22:08:00,12.7,5.6,30.75,WNW,302,0.0,1.8,73,0.00,,---,0.00,VWS V14.01,2013-11-24 04:08:00,
2013-11-23 22:13:00,12.6,5.5,30.74,WNW,302,0.0,0.0,73,0.00,,---,0.00,VWS V14.01,2013-11-24 04:13:00,
2013-11-23 22:18:00,12.4,5.3,30.74,WNW,302,0.0,0.0,73,0.00,,---,0.00,VWS V14.01,2013-11-24 04:18:00,
2013-11-23 22:23:00,12.2,5.4,30.74,WNW,302,0.0,1.8,73,0.00,,---,0.00,VWS V14.01,2013-11-24 04:23:00,
2013-11-23 22:28:00,11.9,5.1,30.74,WNW,302,0.0,0.0,73,0.00,,---,0.00,VWS V14.01,2013-11-24 04:28:00,
2013-11-23 22:33:00,11.4,4.6,30.74,WNW,302,0.0,0.0,73,0.00,,---,0.00,VWS V14.01,2013-11-24 04:33:00,
2013-11-23 22:38:00,11.1,4.6,30.74,WNW,302,0.0,0.0,74,0.00,,---,0.00,VWS V14.01,2013-11-24 04:38:00,
2013-11-23 22:43:00,10.9,4.4,30.74,WNW,302,0.0,0.0,74,0.00,,---,0.00,VWS V14.01,2013-11-24 04:43:00,
2013-11-23 22:48:00,10.7,4.2,30.74,WNW,302,0.0,0.0,74,0.00,,---,0.00,VWS V14.01,2013-11-24 04:48:00,
2013-11-23 22:53:00,10.3,4.1,30.74,WNW,302,0.0,0.0,75,0.00,,---,0.00,VWS V14.01,2013-11-24 04:53:00,
2013-11-23 22:58:00,10.3,4.3,30.74,WNW,302,0.0,1.8,76,0.00,,---,0.00,VWS V14.01,2013-11-24 04:58:00,
2013-11-23 23:01:00,10.4,4.7,30.74,WNW,302,0.0,0.0,77,0.00,,---,0.00,VWS V14.01,2013-11-24 05:01:00,
2013-11-23 23:06:00,10.6,4.9,30.74,WNW,303,0.0,0.0,77,0.00,,---,0.00,VWS V14.01,2013-11-24 05:06:00,
2013-11-23 23:11:00,10.6,4.6,30.74,WNW,302,0.0,0.0,76,0.00,,---,0.00,VWS V14.01,2013-11-24 05:11:00,
2013-11-23 23:16:00,10.4,4.2,30.74,WNW,302,0.0,0.0,75,0.00,,---,0.00,VWS V14.01,2013-11-24 05:16:00,
2013-11-23 23:21:00,9.9,3.7,30.74,WNW,302,0.0,0.0,75,0.00,,---,0.00,VWS V14.01,2013-11-24 05:21:00,
2013-11-23 23:26:00,9.4,3.2,30.74,WNW,302,0.0,0.0,75,0.00,,---,0.00,VWS V14.01,2013-11-24 05:26:00,
2013-11-23 23:31:00,8.9,2.7,30.74,WNW,302,0.0,0.0,75,0.00,,---,0.00,VWS V14.01,2013-11-24 05:31:00,
2013-11-23 23:36:00,8.6,2.7,30.74,WNW,302,0.0,0.0,76,0.00,,---,0.00,VWS V14.01,2013-11-24 05:36:00,
2013-11-23 23:41:00,9.2,4.0,30.74,WNW,302,0.0,0.0,79,0.00,,---,0.00,VWS V14.01,2013-11-24 05:41:00,
2013-11-23 23:46:00,9.6,4.4,30.74,WNW,302,0.0,0.0,79,0.00,,---,0.00,VWS V14.01,2013-11-24 05:46:00,
2013-11-23 23:51:00,9.7,4.3,30.74,WNW,302,0.0,0.0,78,0.00,,---,0.00,VWS V14.01,2013-11-24 05:51:00,
2013-11-23 23:56:00,9.7,4.0,30.73,WNW,302,0.0,0.0,77,0.00,,---,0.00,VWS V14.01,2013-11-24 05:56:00,
2013-11-23 23:57:00,9.6,3.9,30.73,WNW,302,0.0,0.0,77,0.00,,---,0.00,VWS V14.01,2013-11-24 05:57:00,